Weather in Oaxaca de Juárez

Mexico     17°04′32″N   96°43′37″W
temp.,
°C
wind,
m/s
gust,
m/s
humid.,
%
clouds,
%
prec.,
mm/h
press.,
hPa
HPBL,
m
7 august, sun
sun701:00+14nnw2289100 0.1 101841
04:00+13nnw229278 0.0 101834
07:00+13nw3392100 0.0 101942
10:00+18nnw2265100 0.0 1018786
13:00+25se144499 0.0 10142020
16:00+24nw1246100 0.3 10121240
19:00+20ne2363100 1.1 1013129
22:00+15nne3385100 0.7 101734
8 august, mon
mon801:00+15nnw2387100 0.7 101885
04:00+15nnw228398 0.0 101782
07:00+13nw338911 0.0 101857
10:00+19nw226371 0.0 1017660
13:00+24ene134499 0.1 10141968
16:00+22ssw015699 0.8 1012890
19:00+21e246077 1.6 1013412
22:00+16ne2279100 0.8 101745
9 august, tue
tue901:00+15nnw2282100 0.8 101846
04:00+14nw2287100 0.0 101633
07:00+13nnw2289100 0.0 101732
10:00+19nnw226284 0.0 1018717
13:00+25sse2341100 0.0 10142277
16:00+23sse234599 0.2 10121460
19:00+21nne345452 0.2 1013429
22:00+14nne227791 0.0 101821
10 august, wed
wed1001:00+13nnw228374 0.0 102029
04:00+12nnw228599 0.0 101933
07:00+12nnw238783 0.0 102037
10:00+19nnw225734 0.0 1018660
13:00+24sse234278 0.0 10151840
16:00+24ene3345100 0.3 10131876
19:00+21e116584 1.1 101456
22:00+16nne228394 1.0 101818
11 august, thu
thu1101:00+14nnw228936 1.0 101923
04:00+14nnw228993 0.0 101841
07:00+12nw339292 0.0 101941
10:00+19nnw126669 0.0 1018592
13:00+25sse124459 0.1 10141795
16:00+22e235497 0.6 1012928
19:00+22e116397 2.1 1012392
22:00+15nne128799 3.4 101715